RH
78 83 89 92 90 91 92 78 79 70 73 70 48 60 71 76 71 80 88 80 86 87 81 80 80 75 73 73 75 76 73 73 72 73 72 71 69 71 68 68 69 69 71 71 71 73 73 67 66
79 78 90 93 88 89 87 84 79 66 63 62 53 58 71 84 80 92 92 83 83 85 84 85 81 77 73 74 75 73 71 70 71 72 72 72 69 68 67 68 69 70 72 73 74 76 74 68 68
74 66 88 89 85 85 83 77 61 56 52 51 55 55 69 85 77 80 83 83 83 88 88 83 79 76 74 74 72 72 71 70 70 71 75 69 68 66 66 68 70 72 74 73 71 70 69 69 69
73 87 90 83 75 57 64 64 55 59 56 50 55 71 71 71 76 81 80 81 89 95 86 80 76 74 74 73 72 71 70 69 69 71 69 68 67 67 67 68 71 71 73 73 72 71 67 67 70
81 90 83 69 52 53 53 56 55 58 56 54 54 75 83 70 74 78 82 81 92 91 89 81 80 75 75 74 73 72 71 69 69 69 69 68 67 67 68 68 69 71 72 72 72 70 66 74 75
87 85 79 77 60 58 56 49 52 55 54 57 64 72 84 76 79 78 77 84 82 90 90 89 79 77 76 75 74 73 70 69 70 70 69 66 67 68 71 72 73 71 70 71 71 74 73 75 76
79 82 79 75 73 66 59 52 55 58 57 59 53 80 89 82 73 72 82 80 80 88 94 95 88 81 76 76 76 75 70 68 70 69 69 69 69 72 75 76 75 72 74 72 73 75 77 76 79
72 72 69 77 66 70 52 48 49 52 56 45 51 87 95 77 68 76 81 83 85 88 92 96 95 94 93 90 77 73 68 69 69 71 69 71 73 77 77 79 77 73 73 75 74 78 77 77 77
72 74 60 57 54 48 45 54 47 43 51 47 46 60 63 65 73 84 89 95 93 92 97 98 97 96 96 94 87 70 67 68 71 79 80 84 90 88 80 75 76 73 76 78 74 78 81 80 78
68 73 53 43 45 44 46 50 51 52 53 57 61 65 67 74 81 90 94 95 96 95 99 98 97 98 96 86 90 88 87 87 90 91 87 90 91 84 73 73 72 74 73 75 76 78 79 81 91
56 56 37 36 32 31 42 51 46 56 68 60 78 81 79 80 82 86 87 88 92 93 94 98 98 97 96 94 96 98 97 96 96 86 81 84 85 80 87 81 87 86 74 76 84 81 85 90 93
56 44 41 34 27 30 41 44 55 54 56 53 68 74 76 81 83 84 87 87 90 93 92 96 97 97 96 97 98 98 98 90 85 76 86 83 84 83 81 90 81 84 82 81 91 91 93 91 90
56 40 28 31 29 30 30 45 48 53 46 50 62 68 73 75 76 75 75 77 83 89 90 93 94 94 95 96 98 98 94 80 85 78 89 85 82 84 82 81 78 80 80 83 90 91 93 89 90
40 33 30 28 31 30 36 50 52 53 47 55 61 69 70 70 71 72 74 79 81 84 88 89 91 89 95 97 97 98 91 85 89 79 87 82 81 85 81 84 86 84 85 87 94 94 93 96 87
37 40 35 35 35 35 34 45 60 51 48 54 59 63 65 66 65 68 69 73 75 80 83 88 88 87 93 95 95 94 92 80 85 77 82 80 76 84 84 88 90 87 85 86 90 96 95 95 93
49 47 53 42 36 37 35 54 58 51 51 54 54 55 58 60 62 60 62 63 68 74 81 82 76 88 92 91 90 86 86 82 81 78 77 77 76 82 88 89 87 83 84 84 91 96 97 98 94
62 62 57 46 37 37 38 52 57 52 53 55 53 56 55 58 57 56 55 58 62 68 77 82 78 89 92 93 93 88 83 83 82 81 75 80 79 80 89 91 90 85 87 86 87 92 93 96 98
64 60 50 52 43 42 45 46 54 54 55 56 56 56 56 55 55 52 54 54 61 64 72 76 76 84 89 95 96 95 93 89 88 86 80 81 84 82 90 90 91 86 88 88 88 95 97 96 96
47 54 52 46 40 46 47 47 44 54 55 58 59 60 59 57 51 50 51 54 64 66 70 72 80 85 86 95 97 98 98 96 92 90 80 84 85 84 89 88 90 87 85 87 88 95 95 96 93
38 50 51 42 40 44 45 43 36 43 51 50 54 56 57 56 54 55 53 51 58 67 69 76 77 85 81 84 86 96 97 94 87 87 86 83 84 84 82 88 92 91 96 88 90 93 97 96 96
44 47 44 39 44 43 48 42 37 38 38 39 40 41 44 51 55 55 56 52 58 66 72 76 77 82 80 87 93 97 96 96 94 93 89 88 83 86 91 86 90 89 95 89 89 92 91 96 96
36 31 33 37 40 46 39 50 37 41 42 40 40 42 40 42 45 51 54 54 58 64 66 72 75 84 80 90 89 94 97 97 95 90 90 88 85 84 83 90 94 88 88 86 89 81 90 95 96
31 28 33 39 44 47 44 44 39 46 42 44 40 38 39 40 42 52 53 53 52 61 65 69 79 81 81 84 85 86 96 94 94 93 92 93 91 86 82 83 89 89 96 87 87 91 94 91 96
16 33 36 48 52 57 53 48 49 48 52 51 40 36 32 36 42 46 51 52 53 57 63 71 84 84 83 83 89 88 92 94 97 96 97 97 95 94 90 84 86 91 90 86 88 91 93 93 95
37 46 58 52 60 60 78 60 50 46 48 47 42 37 34 38 43 48 54 54 57 60 65 72 82 87 87 84 86 87 89 92 94 95 97 97 98 97 95 93 92 92 93 87 86 94 96 95 96
39 41 52 53 62 52 76 65 46 45 45 45 39 36 38 46 47 47 48 55 63 65 65 71 80 83 87 86 88 87 88 85 87 92 97 98 96 92 89 92 94 93 91 89 88 93 97 96 97
27 46 39 49 69 55 66 61 47 44 40 46 41 35 32 37 44 48 47 51 62 65 67 69 79 79 83 83 84 87 88 86 87 94 95 96 96 94 94 92 92 94 93 92 92 96 96 96 96
26 29 37 47 58 69 67 77 67 45 45 50 43 36 36 37 31 35 46 46 53 59 64 67 74 77 80 84 81 82 84 84 84 91 94 94 93 95 96 96 96 96 96 95 96 97 96 96 97
35 49 59 57 58 60 68 65 58 57 57 55 44 38 36 33 31 33 47 44 50 56 67 68 75 76 80 80 80 80 83 86 93 90 91 90 92 94 96 96 96 96 97 97 97 97 96 95 95
30 35 50 43 59 76 62 49 46 50 44 42 35 34 31 29 29 32 46 50 61 59 61 68 72 74 76 78 81 81 82 86 95 91 92 92 92 96 95 96 97 97 97 97 97 97 96 97 95
Wind_Speed
5 7 3 3 5 6 3 1 2 3 4 2 7 1 7 3 2 3 8 8 14 11 11 11 13 14 13 13 12 11 11 11 9 7 7 7 7 5 4 4 5 6 6 6 6 6 6 6 6
3 3 4 2 6 4 3 1 2 1 6 9 9 5 4 4 6 12 9 13 15 11 9 7 13 13 12 11 11 10 10 9 8 6 5 6 4 4 4 5 7 6 6 7 8 8 8 7 6
9 2 3 3 4 5 4 4 8 9 10 1 4 4 4 4 13 13 12 17 14 11 8 9 15 14 13 11 9 9 8 7 5 5 4 4 4 4 4 5 7 7 7 7 7 8 7 8 6
3 4 2 1 3 3 5 6 14 11 3 4 9 7 5 9 8 8 17 16 12 9 10 14 16 16 15 13 10 8 7 5 3 2 3 4 5 5 5 6 5 7 9 7 7 8 6 5 7
3 1 0 2 3 3 4 8 8 4 3 6 3 5 7 3 15 18 16 13 13 9 6 12 15 14 12 10 10 8 6 4 1 2 3 5 5 6 5 5 5 6 6 7 8 8 4 10 8
3 0 5 3 3 7 5 10 8 7 5 9 10 8 3 14 18 14 12 11 11 9 6 6 13 13 13 11 8 6 4 3 1 4 4 5 6 7 8 6 7 7 8 7 8 12 10 12 12
6 3 3 2 6 2 4 3 6 7 8 5 11 6 4 11 14 14 11 10 9 7 6 5 6 9 11 10 9 7 4 1 1 3 7 8 8 9 10 10 8 10 8 6 10 11 14 13 14
4 4 2 1 1 2 6 3 5 10 4 10 9 6 8 11 15 12 10 9 8 7 5 5 5 5 5 4 7 5 4 1 3 4 6 9 12 11 11 10 9 11 9 9 15 15 15 17 16
2 5 2 3 5 6 9 8 8 5 11 3 2 7 14 18 16 12 10 6 7 7 6 5 5 5 5 3 3 4 3 2 3 5 9 8 4 6 7 6 11 15 14 15 15 13 14 15 16
3 2 3 3 2 4 10 10 10 6 9 3 11 18 19 19 17 16 13 12 10 10 7 6 5 5 5 3 1 1 2 2 4 3 5 4 5 5 6 7 7 12 11 13 14 14 15 13 6
1 4 4 5 7 4 11 8 3 15 3 4 20 21 19 18 14 14 13 13 13 11 8 7 6 6 5 4 2 1 0 2 3 4 3 3 3 4 4 4 4 3 5 4 5 6 5 7 5
2 8 6 6 2 7 12 10 7 6 4 17 21 23 19 18 15 14 13 12 12 12 11 10 9 7 6 3 3 2 1 1 2 2 4 2 2 4 4 3 4 3 3 4 3 4 6 8 7
2 4 7 7 5 2 7 6 5 3 15 15 19 20 19 17 16 14 14 13 13 13 12 12 10 8 6 5 3 3 2 1 2 3 3 0 2 4 3 3 4 3 3 2 3 5 6 6 6
3 8 7 6 4 4 5 3 5 5 15 17 18 19 19 20 18 13 13 14 15 14 14 13 13 10 8 6 6 4 3 3 1 2 2 2 2 3 4 4 4 3 3 3 4 4 6 5 5
4 2 6 5 3 4 5 2 2 13 17 18 18 17 17 17 16 18 16 15 16 14 14 14 13 10 9 8 6 5 4 3 3 1 3 2 2 3 3 3 4 2 4 5 4 5 5 6 4
6 5 2 2 4 2 4 6 5 14 17 18 17 15 17 18 21 16 14 14 15 13 14 13 11 11 10 8 6 4 4 4 3 2 2 2 2 3 2 4 4 2 4 4 3 4 4 5 4
7 1 1 7 5 1 5 3 11 13 14 16 16 15 16 14 13 13 13 14 16 14 13 13 12 12 10 6 4 4 5 4 3 3 3 1 2 3 3 3 2 4 2 4 3 3 4 4 4
1 4 2 2 4 3 3 4 13 18 16 18 17 15 15 15 19 14 14 12 13 13 13 13 10 11 9 4 2 0 2 2 2 3 3 2 3 5 4 3 3 3 3 4 4 3 4 3 4
3 3 4 4 5 2 4 4 12 18 17 16 15 15 16 18 16 14 13 14 9 11 12 14 13 11 9 4 4 3 3 2 2 3 4 3 5 5 4 3 3 3 4 4 4 3 4 3 2
6 6 5 5 5 1 4 9 5 19 25 24 20 18 17 17 13 13 14 13 14 13 13 12 13 13 10 7 5 3 3 3 2 2 3 5 5 5 4 4 3 3 3 5 3 4 2 1 1
1 7 5 7 0 5 6 7 4 5 16 14 16 13 14 17 16 13 14 15 13 14 14 13 14 14 12 9 5 2 3 2 2 1 2 4 6 5 4 5 4 4 4 4 3 4 5 4 2
6 5 6 4 4 2 2 5 5 5 5 7 8 10 10 12 13 14 15 15 15 15 13 13 13 14 11 10 8 6 5 4 4 4 3 4 6 6 5 5 5 4 3 4 3 3 3 4 4
10 5 8 0 4 2 3 4 8 3 5 3 6 8 12 15 13 14 16 17 16 13 14 13 12 12 11 12 11 9 5 4 3 3 5 5 5 5 5 5 5 5 3 3 4 3 4 2 3
11 2 7 6 4 4 4 3 7 2 3 5 6 8 9 13 10 11 12 12 13 12 11 12 13 12 11 12 10 11 9 6 4 4 4 4 4 4 5 5 5 4 4 4 4 4 4 4 3
4 6 4 4 4 6 3 3 9 6 6 6 12 10 8 8 9 10 13 14 14 16 15 12 13 12 12 12 11 11 10 8 9 7 5 5 4 3 6 6 5 4 5 5 4 4 4 4 3
4 8 8 6 5 4 2 3 7 3 7 7 9 4 5 5 5 10 13 13 13 15 15 14 14 13 13 12 12 10 10 8 7 7 5 4 5 5 5 6 6 6 6 5 5 3 4 4 4
2 2 5 8 2 4 2 7 10 5 3 8 8 5 4 3 5 9 10 11 13 15 16 17 15 14 14 14 11 11 10 10 9 7 6 5 5 4 6 6 6 6 6 6 6 4 5 4 4
6 4 3 4 4 3 3 5 7 4 4 9 10 10 8 4 7 8 11 12 13 13 14 14 14 17 14 13 12 11 12 11 9 7 8 7 6 6 6 6 6 6 6 6 6 4 5 5 4
1 1 7 5 5 7 3 8 8 7 7 10 11 8 10 9 7 8 8 12 10 11 12 13 12 13 12 13 12 12 11 11 8 8 8 8 7 7 7 7 6 6 6 6 6 6 5 6 5
5 7 5 7 5 2 4 8 5 9 11 9 9 9 9 9 11 7 7 8 8 10 12 13 12 13 14 12 12 13 11 9 9 10 9 8 9 7 8 7 7 7 6 6 7 7 6 7 6
Wind_Direction
224 5 26 31 62 56 318 274 77 170 156 315 159 143 130 39 102 187 135 138 135 138 145 147 153 142 135 129 127 122 121 116 109 91 82 79 71 69 61 53 49 39 11 1 340 309 309 320 316
145 41 31 19 78 104 249 328 224 243 130 144 103 118 46 80 74 121 122 144 137 138 137 144 153 148 142 139 132 132 127 121 115 99 61 54 51 42 34 36 36 18 347 333 317 327 333 329 313
152 219 47 37 80 151 172 195 130 137 157 87 112 68 71 95 124 134 130 139 135 134 138 158 155 154 152 143 141 137 134 126 112 96 73 19 4 11 21 28 28 351 339 351 348 358 2 11 360
182 27 13 125 173 216 174 187 144 151 180 63 110 79 82 120 132 137 139 137 130 138 153 158 159 158 155 151 145 142 135 130 115 65 44 3 336 351 8 19 10 343 333 345 3 19 23 44 47
68 200 36 66 21 89 103 163 148 133 78 129 95 87 91 64 113 132 138 136 139 146 160 154 157 157 156 152 148 149 143 144 133 24 2 341 336 340 340 356 344 320 327 352 10 26 64 71 59
34 154 50 11 41 88 102 165 144 105 105 106 102 104 71 133 132 146 139 139 145 145 147 152 158 160 155 156 156 154 155 145 4 343 335 324 328 330 331 332 327 342 330 354 18 50 81 70 77
125 68 141 329 115 64 163 167 111 125 124 100 134 81 110 148 144 146 135 134 141 140 138 145 159 165 162 163 166 162 166 189 316 347 329 321 323 327 325 324 340 336 325 17 50 53 85 74 74
113 88 58 107 203 76 166 107 130 123 93 125 146 152 164 165 146 129 127 132 139 147 152 160 174 154 152 181 174 174 175 200 321 328 324 325 329 326 322 336 340 10 16 51 81 66 90 80 74
78 58 5 171 165 189 166 137 185 84 137 155 234 122 138 143 129 126 127 128 146 160 168 159 159 147 150 161 203 186 186 240 320 342 334 341 314 302 319 318 29 24 46 75 79 77 83 79 76
76 47 325 193 235 164 157 147 137 128 149 60 93 104 128 137 145 148 156 160 168 172 172 162 154 149 152 168 214 212 295 328 316 332 309 321 329 325 337 356 34 26 28 65 75 82 91 87 71
141 170 308 271 179 207 164 139 103 139 187 197 142 141 145 150 158 160 169 175 175 173 173 168 160 161 165 175 183 221 358 319 327 354 303 319 4 340 352 4 9 20 15 41 45 77 77 80 75
22 257 245 307 272 160 161 139 117 166 185 150 150 148 150 160 169 174 175 175 169 178 184 174 171 167 180 178 182 192 177 274 307 343 345 43 14 17 20 8 10 10 14 21 60 92 94 89 88
177 269 299 226 336 76 119 133 137 156 135 140 143 152 160 171 179 185 182 175 169 179 182 181 175 175 176 182 184 186 200 237 307 354 359 325 52 45 38 13 48 13 59 32 72 83 92 95 93
255 292 359 110 161 105 108 139 79 131 138 147 153 168 175 181 185 183 185 179 180 181 184 178 183 182 172 179 184 191 195 215 281 329 331 44 17 72 47 25 42 50 53 59 94 94 106 85 97
196 337 25 20 46 130 134 25 151 152 156 160 176 176 185 194 185 194 189 182 181 189 181 182 181 179 181 186 192 181 200 193 222 256 306 28 350 75 73 42 51 65 79 53 67 71 86 88 77
30 40 33 298 36 96 98 271 162 163 165 180 185 191 195 199 200 197 190 186 184 182 183 180 182 181 183 189 188 187 198 197 221 231 272 354 253 118 98 70 63 47 85 81 58 90 77 91 123
15 114 339 326 335 314 189 223 179 177 182 191 197 197 202 208 212 205 191 190 184 183 177 178 181 181 184 193 183 191 205 203 216 221 249 310 234 143 131 96 75 92 54 86 92 58 91 103 95
89 312 296 243 225 199 262 219 176 186 192 203 204 203 209 209 214 201 196 189 182 178 176 176 178 178 174 155 138 181 240 246 213 238 237 228 205 156 134 134 98 104 97 76 93 102 55 87 113
160 229 223 283 263 210 214 251 190 193 203 212 214 208 210 217 215 206 191 190 172 174 165 178 172 174 166 162 167 186 214 201 243 242 223 227 196 189 149 124 106 89 110 120 118 96 109 67 106
237 223 241 283 258 217 36 305 224 192 211 209 205 209 211 214 216 202 200 185 184 174 174 172 179 173 180 181 183 174 168 193 168 222 221 197 187 198 158 149 134 107 114 105 117 127 104 88 182
235 194 209 216 209 357 346 314 19 241 237 218 222 224 217 212 211 204 195 198 183 180 175 177 180 180 182 176 146 94 74 45 119 206 229 209 207 205 188 165 159 129 126 133 132 139 137 172 229
295 217 255 224 103 191 143 279 327 335 22 210 227 222 226 220 215 203 193 194 189 191 178 177 179 180 180 163 174 174 178 176 197 184 195 207 196 199 194 168 171 166 147 146 157 156 155 141 192
247 280 231 310 96 95 330 65 269 12 35 348 296 245 217 218 209 195 196 194 193 181 182 178 177 180 177 178 182 187 177 199 182 165 189 212 213 213 207 202 178 179 183 177 174 170 170 174 166
267 247 44 57 68 17 320 90 287 313 322 292 280 273 272 227 202 193 191 188 191 179 179 173 174 185 181 181 181 188 188 185 185 194 185 207 214 207 216 210 203 194 193 189 200 190 190 197 207
101 64 5 9 16 215 357 64 247 257 260 246 289 297 288 242 189 173 177 185 179 178 181 175 176 185 183 188 190 192 194 191 199 197 191 182 205 215 217 201 209 199 195 201 210 201 207 200 210
206 157 154 187 185 252 247 238 262 249 298 285 272 0 17 13 164 197 193 181 184 183 182 179 182 187 187 189 194 197 195 201 207 197 192 201 200 210 199 200 199 210 198 190 207 210 215 195 213
321 181 183 102 25 77 279 292 304 303 316 337 333 354 352 358 183 195 197 189 182 184 189 185 184 191 191 195 190 196 202 202 207 200 190 195 206 211 204 197 202 205 200 197 201 216 223 207 220
158 170 85 11 129 207 289 286 244 315 318 323 330 322 309 235 264 246 197 190 188 188 186 187 188 193 191 191 196 200 203 206 206 192 203 198 205 206 197 202 202 202 202 199 199 217 225 223 229
67 27 56 111 107 158 181 260 214 222 260 273 278 292 297 309 311 263 180 190 178 175 182 187 187 188 191 195 195 197 204 205 203 205 199 201 199 199 201 203 204 204 204 198 198 213 217 228 230
159 184 156 129 216 139 156 266 202 206 221 219 269 278 287 317 309 274 175 164 159 174 181 188 185 194 198 195 195 202 198 194 197 206 205 193 204 201 204 198 196 199 203 194 199 208 213 222 221